metlocid,date_time,avg_soilt0cm,std_soilt0cm,min_soilt0cm,max_soilt0cm,n_soilt0cm,avg_soilt5cm,std_soilt5cm,min_soilt5cm,max_soilt5cm,n_soilt5cm,avg_soilt10cm,std_soilt10cm,min_soilt10cm,max_soilt10cm,n_soilt10cm,n_comments
BRHM,12/1/94,0.850000006,1.720339514,-1.73,3.94,26,0.891153839,0.891799642,-0.6,2.83,26,0.662307683,0.852161031,-0.69,2.62,26,0
BRHM,1/1/95,0.590094083,4.57550078,-10.65,14.65,744,-0.080470427,2.322518801,-5.77,5.69,744,-0.274569894,2.142906632,-5.48,5.11,744,0
BRHM,2/1/95,-5.72678572,5.564866825,-19.92,8.77,672,-5.487023801,3.541999987,-13.8,3.44,672,-5.508928573,3.368246703,-13.24,2.93,672,0
BRHM,3/1/95,-22.98305115,7.858412739,-36.67,-6.9,744,-20.13290321,6.256658996,-30.38,-9.18,744,-19.76108874,6.073284277,-29.61,-9.34,744,0
BRHM,4/1/95,-32.21822218,6.558763651,-42.92,-14.14,720,-29.38811105,3.955904288,-35.65,-18.86,720,-28.95768059,3.684326763,-34.8,-19.14,720,0
BRHM,5/1/95,-32.19014784,7.229519601,-45.71,-14.69,744,-30.34010751,4.353532629,-38.65,-21.2,744,-30.0191533,4.049780978,-37.73,-21.67,744,0
BRHM,6/1/95,-31.23798606,9.433161136,-47.77,-7.38,720,-30.72059721,5.617937379,-40.86,-16.76,720,-30.5186389,5.227277069,-39.96,-17.54,720,0
BRHM,7/1/95,-33.36676077,7.567236405,-45.99,-12.04,744,-32.1002419,4.965163389,-40.41,-18.03,744,-31.82380384,4.698084405,-39.66,-18.54,744,0
BRHM,8/1/95,-27.61022612,7.050800559,-41.93,-11.33,221,-28.08520359,4.462232056,-35.97,-17.86,221,-28.09828063,4.204323262,-35.47,-18.52,221,31
BRHM,11/1/95,1.148998566,4.871421881,-11.69,11.3,699,-2.30726752,2.656104085,-11,2.62,699,-2.767396282,2.493812701,-11.11,1.79,699,0
BRHM,12/1/95,3.492530245,4.713132728,-8.34,17.98,2976,1.298481184,2.799409792,-5.42,8.98,2976,0.955957664,2.666438074,-5.43,8.15,2976,0
BRHM,1/1/96,1.717355509,4.461908665,-7.52,14.81,2976,0.803044355,2.239456537,-3.68,7.38,2976,0.614401882,2.069072111,-3.49,6.72,2976,0
BRHM,2/1/96,-4.964752152,7.231987089,-21.72,10.59,2784,-4.607877157,4.97876837,-15.66,5.04,2784,-4.597787359,4.78647899,-15.14,4.63,2784,0
BRHM,3/1/96,-17.33471439,6.746235197,-33.43,1.28,2976,-16.14517135,4.410333817,-27.38,-6.05,2976,-15.97884745,4.221726107,-26.75,-6.43,2976,0
BRHM,4/1/96,-21.01933625,6.327788374,-36.53,-6.02,1823,-20.45482171,3.843333068,-29.44,-11.94,1823,-20.3389084,3.608002027,-28.7,-12.42,1823,0
BRHM,11/1/96,-2.636562686,3.949509,-14.25,5.65,1667,-3.431229754,2.791430567,-11.34,2.49,1667,-5.573341329,1.766765534,-10.58,-2.04,1667,0
BRHM,12/1/96,2.195420027,3.495530405,-6.46,13.45,2976,1.747778898,2.841879421,-4.97,9.38,2976,-0.095225133,1.943136031,-5.19,4.87,2976,0
BRHM,1/1/97,0.633202169,3.822587173,-9.15,11.83,2948,0.849799868,3.140981703,-5.96,9.32,2948,-0.072618726,2.073104926,-4.1,4.97,2948,0
BRHM,2/1/97,-9.222343753,5.667037306,-24.42,4.64,2688,-8.276860114,4.783847603,-20.2,2.77,2688,-7.959899551,3.760671507,-16.38,-0.76,2688,0
BRHM,3/1/97,-23.82420088,6.52251398,-35.79,-6.32,2947,-22.76969122,5.641467176,-32.4,-8.53,2947,-21.23016627,4.735324129,-28.33,-10.97,2947,0
BRHM,4/1/97,-32.6377986,7.545098854,-46.33,-11,2880,-31.44391666,6.413359964,-42.82,-14.77,2880,-29.4138125,5.116650507,-38.16,-17.85,2880,0
BRHM,5/1/97,-28.11352484,9.505442792,-47.49,-8.67,2976,-28.28962701,7.748107938,-44.4,-13.92,2976,-27.89788643,5.730922024,-40.11,-17.38,2976,0
BRHM,6/1/97,-27.92398609,9.245021132,-46.64,-8.89,2880,-27.78090968,7.447486107,-43.5,-12.54,2880,-27.06971527,5.340424777,-38.53,-16.15,2880,0
BRHM,7/1/97,-37.97121303,8.962382027,-51.9,-17.43,2976,-37.07172716,7.366949035,-49.03,-20.59,2976,-35.29055777,5.567895835,-44.69,-23.28,2976,0
BRHM,8/1/97,-38.2616969,8.858438277,-52.21,-17.42,2976,-37.88172381,7.529696035,-49.43,-23.2,2976,-36.60011759,5.792506659,-45.16,-25.86,2976,0
BRHM,9/1/97,-29.82435746,9.039063218,-49.57,-6.14,2786,-30.60842428,7.64492961,-47.47,-12.5,2786,-31.19696339,5.82233362,-43.93,-17.33,2786,0
BRHM,10/1/97,-14.5975101,5.715538496,-34.02,-3.65,2976,-15.75301411,4.534363759,-32.1,-7.5,2976,-17.58160954,3.533223545,-30.12,-11.9,2976,0
BRHM,11/1/97,-2.570114697,6.450807303,-24.82,9.79,2877,-3.699690649,5.540604746,-21.61,6.77,2877,-6.043976368,4.718477276,-19.37,1.39,2877,0
BRHM,12/1/97,0.281142474,4.309218457,-9.95,12.47,2976,-0.032970434,3.669412138,-7.24,9.68,2976,-1.515675405,2.806605935,-7.08,4.89,2976,0
BRHM,1/1/98,0.005240336,3.74251868,-9.91,9.89,2975,0.251011763,3.042774118,-6.97,6.87,2975,-0.60352605,1.945742089,-5.35,2.99,2975,0
BRHM,2/1/98,-5.785558039,4.421980604,-18.09,3.57,2688,-5.664780507,3.763600788,-15.5,2.13,2688,-5.872016373,2.889776346,-12.8,-1.38,2688,0
BRHM,3/1/98,-21.10205982,5.742831949,-37.1,-8.08,2976,-20.21949935,4.98663949,-34.24,-9.68,2976,-18.92640458,4.071283353,-29.76,-10.14,2976,0
BRHM,4/1/98,-34.25346179,8.236732399,-49.23,-12.51,2880,-33.2297743,7.161409757,-46.86,-16.1,2880,-30.85064932,5.420066008,-41.83,-19.88,2880,0
BRHM,5/1/98,-30.32807459,8.251000479,-44.73,-7.31,2976,-30.1115255,6.856616369,-42.68,-12.15,2976,-29.21527552,4.870311802,-38.5,-16.69,2976,0
BRHM,6/1/98,-23.70861458,6.40458832,-37.35,-10.87,2880,-24.05888195,5.295268578,-35.31,-14.01,2880,-24.12001734,3.92139595,-32.12,-17.37,2880,0
BRHM,7/1/98,-30.91608873,7.922098882,-45.15,-13.01,2976,-30.46507392,6.663246763,-43.19,-17.02,2976,-29.33965391,5.021027096,-39.55,-20.18,2976,0
BRHM,8/1/98,-34.56381045,8.795759243,-46.02,-11.67,2976,-34.33160279,7.368692617,-43.98,-15.47,2976,-33.37303089,5.466784106,-40.49,-19.77,2976,0
BRHM,9/1/98,-36.89178821,7.086680415,-48.71,-8.23,2880,-36.73021527,5.710892284,-46.36,-14.08,2880,-35.89341321,3.889291627,-42.61,-20.31,2880,0
BRHM,10/1/98,-17.70869288,6.100718305,-35.58,0.24,2976,-18.82375336,4.652537371,-32.9,-6.87,2976,-20.54128361,3.297895586,-30.16,-13.17,2976,0
BRHM,11/1/98,-6.542180552,6.422549801,-25.96,8.17,2880,-7.650222222,5.311760058,-23.2,1.84,2880,-9.725972223,4.311230973,-21.12,-3.07,2880,0
BRHM,12/1/98,1.773135081,4.591909606,-10.61,12.54,2976,0.985120966,3.682763468,-7.9,9.53,2976,-0.974388441,2.637337099,-7.25,5.06,2976,0
BRHM,1/1/99,1.80734207,3.88758006,-7.31,12.27,2976,1.555235216,2.720419199,-4.89,7.61,2976,0.485339383,1.572728514,-3.28,3.81,2976,0
BRHM,2/1/99,-6.984858627,5.594166564,-22,4.34,2688,-6.310784966,4.70912592,-17.61,1.87,2688,-6.004840034,3.893589476,-14.21,0.23,2688,0
BRHM,3/1/99,-23.29977486,7.241259881,-37.67,-8.53,2976,-21.73588711,6.017322262,-33.78,-11.78,2976,-19.95585686,4.895809446,-29.56,-11.84,2976,0
BRHM,4/1/99,-33.98897571,7.553368043,-46.54,-15.57,2880,-32.22388889,6.150376031,-42.64,-18,2880,-29.83307293,4.740067403,-37.99,-18.91,2880,0
BRHM,5/1/99,-36.04033599,7.925193214,-50.65,-15.24,2976,-34.80367945,5.864531867,-46.16,-21.54,2976,-33.00423385,3.936142202,-41.18,-25.08,2976,0
BRHM,6/1/99,-29.84737153,8.086447065,-43.9,-10.65,2880,-29.65049997,6.435941777,-41.02,-14.56,2880,-29.05056602,4.689275125,-37.26,-18.15,2880,0
BRHM,7/1/99,-28.30051747,9.305713674,-43.82,-9.73,2976,-28.2084711,7.507932274,-40.98,-12.97,2976,-27.86613911,5.571466958,-37.5,-16.39,2976,0
BRHM,8/1/99,-38.08623321,9.646707259,-51.77,-14.94,2976,-37.08721436,7.886128167,-48.94,-19.11,2976,-35.46498991,5.960543765,-44.96,-22.81,2976,0
BRHM,9/1/99,-28.33060415,7.847256928,-44.67,-7.57,2880,-29.03344445,6.360950422,-43.73,-12.81,2880,-29.55723609,4.920781484,-43.12,-18.39,2880,0
BRHM,10/1/99,-17.72933803,6.797494715,-36.66,-3.58,2976,-18.85081316,5.678642193,-33.69,-8.14,2976,-20.30581653,4.79409317,-30.98,-11.38,2976,0
BRHM,11/1/99,-4.946302081,5.07335687,-21.35,7.87,2880,-5.884645834,4.0514947,-18.49,2.06,2880,-7.531329866,3.451557003,-17.32,-1.17,2880,0
BRHM,12/1/99,0.755235213,3.363345968,-7.9,8.73,2976,0.38,2.368238789,-5.84,5.86,2976,-0.830833333,1.862034628,-5.83,3.42,2976,0
BRHM,1/1/00,0.236740594,3.699440903,-9.52,9.03,2976,0.332244622,2.388298678,-6.37,5.62,2976,-0.225883738,1.590277505,-4.57,3.28,2976,0
BRHM,2/1/00,-7.865772265,4.843395166,-20.73,4.05,2784,-7.343351296,3.970045092,-16.62,1.55,2784,-7.008477013,3.320535617,-13.54,-0.01,2784,0
BRHM,3/1/00,-19.36906923,6.927297714,-37.52,-6.67,2976,-18.53140121,5.663190071,-33.9,-8.75,2976,-17.39550739,4.457044542,-29.35,-9.58,2976,0
BRHM,4/1/00,-27.64472567,8.148727975,-41.08,-6.83,2880,-26.29811113,6.871659945,-37.48,-9.61,2880,-24.5940382,5.53272837,-33.08,-12.56,2880,0
BRHM,5/1/00,-31.91379705,8.685054017,-46.13,-11.17,2976,-30.76158602,7.086671734,-42.01,-15.3,2976,-29.14747985,5.311366659,-38.22,-18.64,2976,0
BRHM,6/1/00,-34.72580903,11.41317216,-49.36,-5.24,2880,-33.79008678,9.52119046,-46.21,-10.11,2880,-32.33874651,7.349128834,-41.95,-14.35,2880,0
BRHM,7/1/00,-28.83840392,9.421318149,-49.75,-8.37,2976,-28.8758636,7.609087392,-46.64,-13.44,2976,-28.85985215,5.617673573,-42.58,-18.18,2976,0
BRHM,8/1/00,-31.83837026,10.09546063,-48.62,-10.72,2976,-31.76134409,8.147735757,-45.85,-15.02,2976,-31.38222112,5.996619356,-42.25,-18.7,2976,0
BRHM,9/1/00,-28.78308332,10.34988475,-45.46,-8.29,2880,-29.04565973,8.285852478,-42.48,-13.44,2880,-29.18728819,6.087819791,-39.21,-18.2,2880,0
BRHM,10/1/00,-20.77553764,6.417106266,-35.22,-4.23,2976,-21.25981183,4.793105891,-31.23,-8.17,2976,-21.91977488,3.531443299,-28.66,-12.14,2976,0
BRHM,11/1/00,-4.307510415,5.917492748,-26.46,8.95,2880,-5.677197908,5.006288519,-22.88,3.83,2880,-7.621586802,4.461175173,-20.9,0.74,2880,0
BRHM,12/1/00,-0.056562499,3.452192404,-7.6,9.44,2976,-0.337499998,2.267663409,-4.98,4.89,2976,-1.360604839,1.668768308,-5.48,2.49,2976,0
BRHM,1/1/01,-1.214173385,4.15478697,-10.65,11.57,2976,-1.329889114,2.873168969,-7.61,8.86,2976,-1.886915323,1.884618972,-6.47,4.82,2976,0
BRHM,2/1/01,-5.534110856,5.226980939,-20.15,7.39,2688,-5.420721725,3.944175748,-16.48,4.55,2688,-5.441108631,2.875807962,-13.05,1.57,2688,0
BRHM,3/1/01,-22.23413642,6.590849511,-34.13,-5.69,2976,-21.14468078,5.314075932,-30.98,-9.1,2976,-19.51703292,4.225153372,-26.97,-9.68,2976,0
BRHM,4/1/01,-27.77060071,6.797437843,-43.74,-15.11,2880,-26.98808682,5.394933931,-40.35,-16.6,2880,-25.41391321,3.854937896,-35.27,-18.22,2880,0
BRHM,5/1/01,-29.10832996,10.04702451,-45.91,-6.54,2976,-28.76872311,8.233173418,-42.86,-10.51,2976,-27.52880038,6.115009156,-38.47,-14.36,2976,0
BRHM,6/1/01,-27.58570831,7.257774568,-42.95,-7.77,2880,-27.85830554,5.778946919,-39.85,-12.8,2880,-27.45423957,4.202203795,-35.71,-17.79,2880,0
BRHM,7/1/01,-30.92238909,8.309080457,-46.84,-11.65,2976,-30.89425738,6.553998914,-43.89,-16.06,2976,-30.0293985,4.682790861,-39.42,-19.43,2976,0
BRHM,8/1/01,-41.24723789,6.064931836,-51.82,-21.46,2976,-40.30619291,4.78610178,-49.09,-28.87,2976,-38.22537633,3.454898016,-44.7,-30.19,2976,0
BRHM,9/1/01,-32.69356598,8.923656495,-46.72,-12.7,2880,-33.10782638,7.138640075,-44.57,-20.42,2880,-33.04501042,5.131372821,-41.47,-23.83,2880,0
BRHM,10/1/01,-18.94527219,7.361643444,-39.25,-4.61,2976,-19.86105174,5.740839337,-36.38,-9.52,2976,-21.13834676,4.30449397,-33.21,-14.19,2976,0
BRHM,11/1/01,-5.485913194,5.21657488,-22.46,7.25,2880,-6.683878473,4.378735245,-20.06,1.83,2880,-8.676197916,3.736023789,-18.63,-1.86,2880,0
BRHM,12/1/01,3.841839888,4.803793668,-9.2,15.3,2973,2.144693812,3.717718418,-6.87,11.6,2972,-0.251258413,2.830732118,-5.87,6.97,2972,4
BRHM,1/1/02,3.738232526,4.924715438,-7.69,15.93,2976,2.837500002,3.669659845,-5.2,11.16,2976,1.423387095,2.44678709,-3.57,6.62,2976,0
BRHM,2/1/02,-5.719639134,5.478243379,-19.73,8.75,2688,-5.5271689,4.379743859,-16.29,4.33,2688,-5.382819943,3.314539333,-12.87,0.67,2688,0
BRHM,3/1/02,-17.20774868,5.652340684,-32.97,-3.41,2976,-16.65618615,4.593946595,-28.89,-6.24,2976,-15.52386089,3.605215534,-24.07,-8.04,2976,0
BRHM,4/1/02,-29.08517012,8.318736158,-42.45,-9.49,2880,-28.21255557,6.748316877,-39.5,-12.9,2880,-26.33943057,4.847217339,-34.77,-16.29,2880,0
BRHM,5/1/02,-25.24429436,8.174557734,-42.43,-5.65,2976,-24.80770498,6.834186948,-39.18,-8.77,2976,-23.74965055,5.201214536,-34.49,-12.24,2976,0
BRHM,6/1/02,-34.96080206,8.554999588,-48.82,-10.89,2880,-34.07504862,6.768404703,-45.65,-15.07,2880,-32.28165622,4.689381827,-41.02,-19.44,2880,0
BRHM,7/1/02,-34.98756385,8.695701294,-47.16,-15.09,2976,-34.60034273,6.93448174,-44.77,-19.13,2976,-33.33368275,4.935060957,-41.02,-23.08,2976,0
BRHM,8/1/02,-36.03515792,7.547175916,-49.29,-14.02,2976,-35.86987899,5.906102157,-46.47,-18.84,2976,-34.82371973,4.074511218,-42.28,-23.8,2976,0
BRHM,9/1/02,-29.89398956,7.285330143,-42.08,-9.03,2880,-30.09002082,5.886673589,-40.33,-13.31,2880,-29.91496873,4.23891518,-37.56,-18.01,2880,0
BRHM,10/1/02,-20.88637097,6.802504535,-35.23,-3.44,2976,-21.89565189,5.491229761,-32.55,-8.64,2976,-23.24091062,4.197898035,-31.13,-13.38,2976,0
BRHM,11/1/02,-8.145802074,4.091284916,-20.04,0.87,2880,-9.48235069,2.990803596,-17.19,-3,2880,-11.52895834,2.128492164,-17.11,-7.38,2880,0
BRHM,12/1/02,0.486834675,4.287015925,-10.78,10.64,2976,-0.793222448,3.320590471,-10.13,5.97,2976,-2.890984544,2.487702354,-9.98,1.65,2976,0
BRHM,1/1/03,0.629250672,4.451080458,-13.81,14.56,2976,-0.060396507,3.44150464,-10.74,9.76,2976,-1.194270833,2.385775638,-9.07,4.19,2976,0
BRHM,2/1/03,-7.65824405,4.342922006,-19.88,3.02,2688,-7.776383927,3.052257461,-16.41,-0.66,2688,-7.962046133,2.280172326,-14.48,-2.47,2688,0
BRHM,3/1/03,-20.99495295,5.841308051,-33.29,-9.02,2976,-20.36206988,4.80253844,-30.26,-9.77,2976,-19.76853159,4.277502795,-28.3,-9.33,2976,0
BRHM,4/1/03,-31.11707289,6.939470302,-40.63,-9.3,2880,-29.97579168,5.998454534,-38.28,-13.31,2880,-29.04659028,5.386820145,-36.5,-14.84,2880,0
BRHM,5/1/03,-24.83815187,9.192218929,-40,-3.03,2976,-25.27666668,7.769732564,-38.21,-7.51,2976,-25.22512098,6.9110908,-36.77,-9.91,2976,0
BRHM,6/1/03,-31.32714233,7.065912281,-45.26,-14.67,2880,-30.78788541,5.851203482,-43.08,-17.55,2880,-30.14202083,5.19761068,-41.41,-18.94,2880,0
BRHM,7/1/03,-30.46381718,8.192288262,-44.38,-13.43,2976,-30.65055776,6.742186535,-42.46,-17.89,2976,-30.35158268,5.959367883,-40.97,-19.69,2976,0
BRHM,8/1/03,-34.6024865,7.414968604,-47.99,-15.39,2976,-34.25553426,5.96136806,-45.65,-19.42,2976,-33.6630242,5.246871803,-43.88,-21.16,2976,0
BRHM,9/1/03,-28.26380554,8.917207464,-46.47,-13.42,2880,-28.90086805,7.636570849,-44.56,-16.82,2880,-29.01198265,6.86829617,-43.1,-18.44,2880,0
BRHM,10/1/03,-16.66012096,5.838840965,-33.1,-1.11,2976,-17.80117271,4.667205695,-31.36,-6.49,2976,-18.55678764,4.052765302,-30.33,-9.39,2976,0
BRHM,11/1/03,-7.092892365,4.455691346,-20.72,6.62,2880,-8.060076386,3.377457254,-17.68,0.87,2880,-9.000340278,2.799806451,-16.59,-1.22,2880,0
BRHM,12/1/03,2.179499331,4.115519245,-7.22,13.69,2976,1.056471773,3.028553424,-5.74,9.25,2976,-0.173071239,2.393807006,-5.93,5.7,2976,0
BRHM,1/1/04,0.435890455,4.064865191,-10.54,12.78,2976,0.065413307,2.736538551,-7.63,7.58,2976,-0.548585349,1.910556676,-5.55,4.76,2976,0
BRHM,2/1/04,-7.040061063,5.293317614,-20.4,5.42,2784,-6.791821123,3.927752106,-16.92,1.2,2784,-6.687726291,2.919415147,-13.67,-0.96,2784,0
BRHM,3/1/04,-23.45316197,6.431422571,-37.3,-4.18,2976,-21.95156921,5.066627066,-33.29,-8.92,2976,-20.19905242,4.098000035,-28.91,-10.84,2976,0
BRHM,4/1/04,-30.30920486,6.504098535,-42.58,-14.92,2880,-29.15957988,5.002669546,-38.98,-17.59,2880,-27.50423266,3.614848948,-34.81,-18.93,2880,0
BRHM,5/1/04,-33.67502017,9.714495653,-46.72,-7.63,2976,-32.49494621,7.749400436,-43.38,-12.03,2976,-30.78832664,5.760807953,-39.57,-15.94,2976,0
BRHM,6/1/04,-27.74463539,9.00311359,-43.82,-8.99,2880,-27.83515973,7.119623855,-41.79,-14.05,2880,-27.54255208,5.410085109,-39.26,-17.42,2880,0
BRHM,7/1/04,-40.06785614,8.489003206,-52.36,-12.73,2976,-39.05327281,6.447876477,-49.17,-19.58,2976,-37.3121169,4.682579494,-45.15,-23.72,2976,0
BRHM,8/1/04,-32.84157592,9.452314391,-49.01,-10.31,2976,-33.22738241,7.184493855,-45.93,-16.17,2976,-33.03929768,5.149519712,-42.44,-21.16,2976,0
BRHM,9/1/04,-31.26743749,6.107150131,-42.72,-10.41,2880,-31.40860417,4.303063358,-40.33,-17.39,2880,-31.24342014,2.811655609,-37.62,-23.02,2880,0
BRHM,10/1/04,-18.91948924,8.141411396,-41.07,-1.62,2976,-20.17201952,6.334373404,-38.08,-9.19,2976,-21.45636087,4.981487844,-34.93,-14.63,2976,0
BRHM,11/1/04,-4.088413199,6.069541378,-19.19,9.85,2880,-5.775024313,5.197595264,-18.17,4.56,2880,-8.119635423,4.433576946,-18.09,-1.33,2880,0
BRHM,12/1/04,2.499129704,3.691411844,-6.38,11.88,2976,1.299912635,2.537019134,-4.28,7.79,2976,-0.602920026,1.401788163,-4.84,3.49,2976,0
BRHM,1/1/05,1.072258825,3.741959475,-10.27,14.04,2975,0.786752941,2.528321932,-6.64,9.05,2975,0.258443698,1.87701817,-4.78,6.31,2975,0
BRHM,2/1/05,-6.903177088,5.507342581,-22.47,7.98,2688,-6.469025293,4.075883978,-18.1,1.74,2688,-6.328244041,3.426788347,-15.5,-0.91,2688,0
BRHM,3/1/05,-21.76465055,6.059541743,-33.59,-6.14,2976,-20.52394489,4.52617834,-29.98,-9.76,2976,-19.56882056,3.874155867,-27.72,-10.79,2976,0
BRHM,4/1/05,-30.96502776,6.892438367,-42.74,-17.23,2880,-29.42704169,5.601170344,-39.1,-19.6,2880,-28.09947573,4.819176682,-36.39,-20.01,2880,0
BRHM,5/1/05,-28.13056451,6.703306501,-42.12,-10.22,2976,-28.02498654,4.766072347,-38.48,-15.46,2976,-27.71826275,3.756469841,-36.32,-18.07,2976,0
BRHM,6/1/05,-31.18411805,8.207032713,-46.03,-8.09,2880,-30.88098956,5.887315891,-42.48,-13.38,2880,-30.46180212,4.562539511,-40.09,-16.82,2880,0
BRHM,7/1/05,-33.59970765,9.472231036,-46.49,-7.06,2976,-33.04258066,7.312071587,-42.95,-12,2976,-32.48404567,6.185604434,-41.02,-15.18,2976,0
BRHM,8/1/05,-33.27960685,7.663119776,-45.73,-11.57,2976,-32.89365926,5.445360966,-42.51,-18.58,2976,-32.41105847,4.40598254,-40.53,-22.08,2976,0
BRHM,9/1/05,-29.48793056,10.24470883,-46.18,-1.72,2880,-30.36638886,7.456003697,-43.09,-10.33,2880,-30.56765626,6.09183489,-41.3,-15.11,2880,0
BRHM,10/1/05,-16.14837365,7.47483114,-34.18,0.06,2976,-17.64837701,5.542341224,-30.37,-5.65,2976,-18.63254704,4.507975827,-28.22,-9.4,2976,0
BRHM,11/1/05,-5.166993054,5.083622771,-19.26,7.2,2880,-6.582916658,3.678925831,-16.22,2,2880,-7.906288202,2.84215626,-14.72,-1.95,2880,0
BRHM,12/1/05,2.999116265,3.745959222,-8.43,12.18,2976,1.826206317,2.592192445,-6.59,7.99,2976,0.515372984,1.957588776,-5.75,4.53,2976,0
BRHM,1/1/06,2.103852459,3.832015639,-5.78,10.2,1098,1.734744994,2.280649605,-2.05,6.63,1098,1.029945354,1.154421881,-1.04,3.36,1098,0
BRHM,5/1/06,-33.39741253,9.509545889,-44.1,-13.71,286,-33.30807697,6.192857988,-40.2,-20.97,286,-32.62650346,3.766502943,-36.98,-25.23,286,0
BRHM,6/1/06,-28.283909,10.02779138,-47.18,-9.6,2837,-28.06086709,7.522684775,-42.5,-15.82,2837,-27.6025802,5.6456825,-38.57,-18.7,2837,0
BRHM,7/1/06,-38.82242607,8.227380885,-49.06,-18.18,2976,-37.78303762,5.671535342,-45.38,-22.09,2976,-36.50756721,3.978431848,-42.14,-25.09,2976,0
BRHM,8/1/06,-26.154375,7.893614883,-40.57,-8.87,2976,-26.86989583,5.469985895,-37.13,-15.1,2976,-27.20372314,3.788062001,-34.39,-19.42,2976,0
BRHM,9/1/06,-28.06500694,9.622505157,-43.51,-7.35,2880,-28.26959376,7.448737311,-39.96,-12.04,2880,-28.28239932,5.772699019,-37.1,-16.39,2880,0
BRHM,10/1/06,-21.48549061,7.218588692,-37.83,-4.92,2976,-22.35354501,4.653606478,-34.05,-10.78,2976,-23.060914,3.111283023,-31.21,-15.21,2976,0
BRHM,11/1/06,-6.104013882,7.303424014,-25.03,7.96,2880,-8.153468751,5.750272037,-21.87,2.39,2880,-10.35930208,4.790958373,-20.17,-2.26,2880,0
BRHM,12/1/06,0.224737903,4.142061579,-10.2,12.3,2976,-0.871703631,2.63752914,-7.29,6.33,2976,-2.476891803,1.374219949,-5.95,0.58,2976,0
BRHM,1/1/07,3.941496376,4.222077175,-6.24,15.34,1791,2.599726408,2.684840761,-2.82,8.82,1791,0.848252373,1.209546298,-1.91,3.8,1791,0
BRHM,9/1/07,-23.72153448,7.540571856,-42.52,-8.37,1929,-24.80432869,5.740632183,-39.16,-13.7,1929,-25.55213063,4.07511838,-35.19,-17.74,1929,0
BRHM,10/1/07,-19.21698587,5.6449022,-37.32,-5.71,2976,-19.94317875,3.968972546,-33.21,-11.4,2976,-20.55729503,2.534579452,-28.96,-15.83,2976,0
BRHM,11/1/07,-7.35176389,7.514441883,-25.86,8.08,2880,-9.048361113,6.39763602,-23.75,1.32,2880,-11.26031598,5.182302496,-21.93,-3.74,2880,0
BRHM,12/1/07,1.920336022,4.853400725,-11.78,15.18,2976,0.620026883,3.75713155,-9.2,8.92,2976,-1.507913306,2.732184592,-7.89,2.89,2976,0
BRHM,1/1/08,0.618722259,3.724857516,-9.05,12.42,2974,0.302111634,2.475351817,-5.16,7.28,2974,-0.333439811,1.523317267,-3.4,4.01,2974,0
BRHM,2/1/08,-8.165589084,4.627563895,-19.45,4.86,2784,-7.526961219,3.326888115,-14.83,0.09,2784,-7.169536639,2.70723212,-12.11,-0.99,2784,0
BRHM,3/1/08,-19.16451276,7.80614264,-33.72,-2.85,2976,-17.77448924,5.977976297,-29.41,-6.77,2976,-16.72269826,5.043143315,-26.59,-8.18,2976,0
BRHM,4/1/08,-25.80240622,6.458360704,-38.1,-9.05,2880,-25.12875345,4.241563202,-33.59,-14.35,2880,-24.33872223,3.110101792,-30.7,-16.66,2880,0
BRHM,5/1/08,-31.21556112,7.215184955,-44.28,-8.68,2976,-30.09273857,5.199115464,-39.96,-15.65,2976,-29.00110215,4.277814214,-37.1,-17.96,2976,0
BRHM,6/1/08,-23.97628819,7.110091943,-39.15,-5.19,2880,-24.37536459,5.16585611,-35.16,-11.15,2880,-24.35322571,4.10409782,-33.35,-14.36,2880,0
BRHM,7/1/08,-34.98391464,8.631174072,-46.31,-15.12,2976,-33.91310814,5.673771019,-41.66,-22.14,2976,-32.97361221,4.193970322,-39.03,-24.13,2976,0
BRHM,8/1/08,-37.86457656,7.436135805,-50.06,-14.44,2976,-36.92283603,4.931840969,-45.98,-22.2,2976,-35.94320564,3.801294289,-43.4,-25.9,2976,0
BRHM,9/1/08,-22.85998958,7.381772849,-42.69,-10.49,2880,-24.74529513,5.54452836,-40.13,-16.27,2880,-25.59487153,4.68842683,-38.65,-18.71,2880,0
BRHM,10/1/08,-17.71836358,6.250470473,-34.08,-3.13,2976,-18.86538643,4.506913167,-30.23,-8.78,2976,-19.58640793,3.586839956,-27.85,-12.29,2976,0
BRHM,11/1/08,-6.72090973,5.524264777,-22.12,5.58,2880,-8.16252431,4.058746237,-18.85,0.39,2880,-9.533604175,3.156146025,-17.02,-2.91,2880,0
BRHM,12/1/08,2.545164652,4.615579381,-9.47,15.26,2976,0.915299057,3.198214559,-7.34,9.35,2976,-0.735833332,2.350053154,-6.1,4.3,2976,0
BRHM,1/1/09,1.730678766,3.934202997,-7.57,12.77,2976,1.185937502,2.214299367,-3.91,7.75,2976,0.619324596,1.292004701,-2.69,4.21,2976,0
BRHM,2/1/09,-8.94356027,6.49204993,-24.98,6.45,2688,-8.063203128,5.142599316,-19.89,2.08,2688,-7.380982139,4.301256915,-16.01,-0.16,2688,0
BRHM,3/1/09,-21.89655916,7.281481679,-34.82,-1.87,2976,-20.55364582,5.830239154,-30.82,-6.49,2976,-18.97526546,4.897490164,-27.12,-8.63,2976,0
BRHM,4/1/09,-23.59186112,6.808577736,-37.32,-9.06,2880,-23.14430207,4.895521184,-33.32,-13.46,2880,-22.39227085,3.376576951,-29.79,-15.72,2880,0
BRHM,5/1/09,-32.70863238,8.840722383,-44.82,-12.41,2976,-30.95474797,6.918500323,-41.12,-18.61,2976,-29.01080643,5.405712386,-37.48,-19.05,2976,0
BRHM,6/1/09,-29.47970833,9.269820358,-48.33,-12.2,2880,-29.46773956,6.690982534,-44.1,-16.87,2880,-28.95157291,4.725216842,-39.89,-20.11,2880,0
BRHM,7/1/09,-29.42739918,8.12223035,-42.23,-6.84,2976,-28.95596771,5.763737207,-37.77,-13.75,2976,-28.24027216,4.127323064,-34.47,-17.57,2976,0
BRHM,8/1/09,-31.5436055,7.934165965,-45.33,-15.48,2976,-31.10113576,5.560243785,-41.56,-19.32,2976,-30.35623319,3.948682944,-38.44,-21.88,2976,0
BRHM,9/1/09,-28.73482641,9.786081769,-48.28,-5.54,2880,-29.27955208,6.909502838,-44.06,-13.34,2880,-29.30794445,4.860113779,-40.4,-18.83,2880,0
BRHM,10/1/09,-19.90247648,6.494783415,-34.39,-4.19,2976,-20.93170026,4.447578168,-31.22,-10.63,2976,-21.69179434,3.224396059,-29.1,-14.66,2976,0
BRHM,11/1/09,-4.780090278,6.440885373,-21.46,9.13,2880,-6.776399307,5.182964017,-18.8,3.32,2880,-8.877968746,4.360518866,-17.64,-1.25,2880,0
BRHM,12/1/09,2.356719329,4.239509703,-6.54,12.39,2975,1.068134454,2.404820738,-4.47,6.63,2975,-0.4706521,1.175410289,-4.29,2.02,2975,1
BRHM,1/1/10,1.337113577,4.010101895,-9.31,10.75,2976,0.714351479,2.489333033,-6.33,6.33,2976,-0.296743952,1.028299133,-3.83,1.81,2976,0
BRHM,2/1/10,-6.886700146,6.138281605,-23.27,7.22,2688,-6.548355655,4.80656522,-18.39,3.41,2688,-6.100494792,3.532721557,-13.57,-0.12,2688,0
BRHM,3/1/10,-19.43667004,7.921746843,-36.48,-3.1,2976,-18.33673387,6.464397285,-32.9,-6.13,2976,-16.45099127,4.729144881,-27.53,-8.41,2976,0
BRHM,4/1/10,-28.32949303,6.096883443,-40.05,-12.71,2880,-27.28504861,4.551036614,-36.4,-15.67,2880,-25.26045486,2.803637648,-31.74,-18.62,2880,0